GW5470 Weather Reports


time (UTC)temp
C
wind
direction
speed
KPH
gust
KPH
rain 1hr
cm
rain 24hr
cm
rain mn
cm
humidity
%
barometer
mb
20260902000204 26 212 0.0 0.0 0.00 0.00 0.00 94 1017.6
20260901235703 26 212 0.0 0.0 0.00 0.00 0.00 93 1017.5
20260901235158 26 212 0.0 0.0 0.00 0.00 0.00 92 1017.7
20260901234657 26 212 0.0 0.0 0.00 0.00 0.00 92 1017.6
20260901234152 26 212 0.0 0.0 0.00 0.00 0.00 91 1017.5
20260901233647 26 212 0.0 0.0 0.00 0.00 0.00 91 1017.7
20260901233143 26 212 0.0 0.0 0.00 0.00 0.00 90 1017.8
20260901232638 27 212 0.0 0.0 0.00 0.00 0.00 89 1017.7
20260901232133 27 212 0.0 0.0 0.00 0.00 0.00 89 1017.8
20260901231630 27 212 0.0 0.0 0.00 0.00 0.00 88 1017.7
20260901231126 27 212 0.0 0.0 0.00 0.00 0.00 88 1017.8
20260901230621 27 212 0.0 0.0 0.00 0.00 0.00 87 1017.9
20260901230121 27 212 0.0 0.0 0.00 0.00 0.00 86 1017.9
20260901225616 27 212 0.0 0.0 0.00 0.00 0.00 86 1018.1
20260901225116 28 212 0.0 0.0 0.00 0.00 0.00 85 1018.1
20260901224612 28 212 0.0 0.0 0.00 0.00 0.00 84 1018.1
20260901224108 28 212 0.0 0.0 0.00 0.00 0.00 82 1018.1
20260901223603 28 212 0.0 0.0 0.00 0.00 0.00 82 1018.3
20260901223104 28 212 0.0 0.0 0.00 0.00 0.00 79 1018.0
20260901222600 28 212 0.0 0.0 0.00 0.00 0.00 80 1018.0
20260901222055 29 212 0.0 0.0 0.00 0.00 0.00 77 1018.0
20260901221552 29 212 1.6 1.6 0.00 0.00 0.00 77 1017.9
20260901221047 30 212 0.0 0.0 0.00 0.00 0.00 74 1017.8
20260901220546 30 216 0.0 0.0 0.00 0.00 0.00 72 1017.9
20260901220045 31 216 0.0 0.0 0.00 0.00 0.00 71 1017.7
20260901215543 31 217 0.0 0.0 0.00 0.00 0.00 70 1017.7
20260901215038 31 217 0.0 0.0 0.00 0.00 0.00 69 1017.8
20260901214537 31 223 1.6 1.6 0.00 0.00 0.00 67 1017.7
20260901214031 32 208 1.6 1.6 0.00 0.00 0.00 68 1017.5
20260901213525 32 204 0.0 1.6 0.00 0.00 0.00 66 1017.3
20260901213020 32 206 0.0 0.0 0.00 0.00 0.00 69 1017.1
20260901212520 32 208 0.0 0.0 0.00 0.00 0.00 66 1017.1
20260901212017 33 197 3.2 4.8 0.00 0.00 0.00 62 1016.8
20260901211512 33 197 0.0 0.0 0.00 0.00 0.00 64 1017.0
20260901211008 32 205 0.0 1.6 0.00 0.00 0.00 59 1016.9
20260901210503 32 193 0.0 0.0 0.00 0.00 0.00 63 1017.0
20260901205959 32 229 4.8 6.4 0.00 0.00 0.00 59 1017.1
20260901205454 32 185 3.2 3.2 0.00 0.00 0.00 62 1017.1
20260901204954 32 165 6.4 6.4 0.00 0.00 0.00 60 1017.0
20260901204451 33 216 1.6 1.6 0.00 0.00 0.00 63 1017.1
20260901203950 33 235 3.2 3.2 0.00 0.00 0.00 58 1017.2
20260901203445 33 207 1.6 1.6 0.00 0.00 0.00 59 1017.3
20260901202940 33 177 0.0 0.0 0.00 0.00 0.00 61 1017.2
20260901202435 33 221 1.6 1.6 0.00 0.00 0.00 64 1017.4
20260901201931 33 211 0.0 0.0 0.00 0.00 0.00 61 1017.7
20260901201426 33 207 0.0 0.0 0.00 0.00 0.00 67 1017.6
20260901200920 32 210 0.0 0.0 0.00 0.00 0.00 63 1017.9
20260901200415 31 196 0.0 0.0 0.00 0.00 0.00 69 1018.0
20260901195914 32 193 1.6 1.6 0.00 0.00 0.00 67 1018.0
20260901195413 32 197 0.0 0.0 0.00 0.00 0.00 64 1018.1
20260901194908 32 190 0.0 0.0 0.00 0.00 0.00 63 1018.2
20260901194402 33 198 0.0 1.6 0.00 0.00 0.00 61 1018.4
20260901193859 33 204 0.0 0.0 0.00 0.00 0.00 69 1018.5
20260901193357 33 210 1.6 1.6 0.00 0.00 0.00 64 1018.6
20260901192852 33 228 3.2 3.2 0.00 0.00 0.00 63 1018.4
20260901192348 33 193 1.6 1.6 0.00 0.00 0.00 61 1018.7
20260901191844 33 195 0.0 0.0 0.00 0.00 0.00 59 1018.6
20260901191339 32 207 0.0 0.0 0.00 0.00 0.00 65 1018.9
20260901190835 32 204 1.6 3.2 0.00 0.00 0.00 66 1018.9
20260901190334 32 205 1.6 1.6 0.00 0.00 0.00 65 1019.1
20260901185833 32 202 0.0 0.0 0.00 0.00 0.00 62 1019.1
20260901185332 31 217 1.6 3.2 0.00 0.00 0.00 66 1019.3
20260901184827 31 195 0.0 0.0 0.00 0.00 0.00 68 1019.5
20260901184323 32 291 3.2 3.2 0.00 0.00 0.00 62 1019.9
20260901183818 31 203 1.6 1.6 0.00 0.00 0.00 66 1019.8
20260901183318 31 195 1.6 1.6 0.00 0.00 0.00 66 1019.7
20260901182814 32 215 0.0 0.0 0.00 0.00 0.00 70 1019.5
20260901182313 31 211 0.0 0.0 0.00 0.00 0.00 64 1019.7
20260901181808 31 187 1.6 3.2 0.00 0.00 0.00 65 1019.4
20260901181303 31 195 1.6 1.6 0.00 0.00 0.00 66 1019.7
20260901180803 32 208 0.0 1.6 0.00 0.00 0.00 64 1019.5
20260901180301 32 207 0.0 1.6 0.00 0.00 0.00 69 1019.7
20260901175801 31 217 1.6 1.6 0.00 0.00 0.00 69 1019.7
20260901175256 30 206 1.6 1.6 0.00 0.00 0.00 73 1019.9
20260901174750 30 211 1.6 1.6 0.00 0.00 0.00 75 1019.8
20260901174247 29 213 3.2 4.8 0.00 0.00 0.00 72 1019.8
20260901173742 30 198 3.2 3.2 0.00 0.00 0.00 72 1019.9
20260901173237 30 207 0.0 1.6 0.00 0.00 0.00 71 1019.7
20260901172734 31 352 4.8 6.4 0.00 0.00 0.00 67 1019.7
20260901172232 31 214 0.0 0.0 0.00 0.00 0.00 68 1019.9
20260901171730 31 208 0.0 0.0 0.00 0.00 0.00 74 1019.9
20260901171230 31 244 1.6 3.2 0.00 0.00 0.00 66 1020.0
20260901170729 31 175 0.0 1.6 0.00 0.00 0.00 67 1020.0
20260901170224 31 197 1.6 1.6 0.00 0.00 0.00 66 1019.9
20260901165722 32 143 0.0 1.6 0.00 0.00 0.00 63 1020.0
20260901165218 31 191 0.0 0.0 0.00 0.00 0.00 64 1020.3
20260901164714 31 274 3.2 3.2 0.00 0.00 0.00 63 1020.3
20260901164214 31 122 3.2 3.2 0.00 0.00 0.00 67 1020.4
20260901163710 31 141 1.6 3.2 0.00 0.00 0.00 66 1020.5
20260901163209 31 7 1.6 4.8 0.00 0.00 0.00 66 1020.6
20260901162704 32 216 1.6 3.2 0.00 0.00 0.00 66 1020.4
20260901162204 31 193 0.0 0.0 0.00 0.00 0.00 63 1020.5
20260901161702 31 255 1.6 3.2 0.00 0.00 0.00 63 1020.3
20260901161156 31 211 3.2 4.8 0.00 0.00 0.00 64 1020.2
20260901160653 31 158 3.2 3.2 0.00 0.00 0.00 65 1020.3
20260901160148 31 188 0.0 0.0 0.00 0.00 0.00 67 1020.2
20260901155647 31 190 1.6 3.2 0.00 0.00 0.00 66 1020.1
20260901155143 31 189 0.0 0.0 0.00 0.00 0.00 68 1020.1
20260901154637 31 37 3.2 4.8 0.00 0.00 0.00 64 1020.0
20260901154132 31 232 3.2 3.2 0.00 0.00 0.00 65 1020.2
20260901153628 31 196 6.4 9.7 0.00 0.00 0.00 66 1020.1
20260901153126 31 221 3.2 3.2 0.00 0.00 0.00 69 1019.8
20260901152622 31 237 3.2 3.2 0.00 0.00 0.00 65 1019.8
20260901152115 31 177 3.2 4.8 0.00 0.00 0.00 66 1019.5
20260901151611 31 192 0.0 0.0 0.00 0.00 0.00 67 1019.4
20260901151110 30 207 1.6 1.6 0.00 0.00 0.00 70 1019.3
20260901150609 31 161 3.2 4.8 0.00 0.00 0.00 70 1019.3
20260901150108 31 161 1.6 3.2 0.00 0.00 0.00 69 1019.3
20260901145606 31 184 3.2 3.2 0.00 0.00 0.00 70 1019.5
20260901145105 30 184 1.6 1.6 0.00 0.00 0.00 71 1019.5
20260901144601 30 230 1.6 1.6 0.00 0.00 0.00 71 1019.3
20260901144056 30 194 0.0 0.0 0.00 0.00 0.00 73 1019.7
20260901143551 29 181 1.6 1.6 0.00 0.00 0.00 74 1019.7
20260901143048 29 204 0.0 1.6 0.00 0.00 0.00 76 1019.4
20260901142543 29 153 1.6 1.6 0.00 0.00 0.00 74 1019.4
20260901142043 28 173 0.0 0.0 0.00 0.00 0.00 81 1019.4
20260901141538 28 194 0.0 0.0 0.00 0.00 0.00 77 1019.4
20260901141032 28 172 1.6 3.2 0.00 0.00 0.00 81 1019.2
20260901140531 28 186 0.0 0.0 0.00 0.00 0.00 83 1019.3
20260901140026 27 154 4.8 4.8 0.00 0.00 0.00 83 1019.4
20260901135525 26 155 1.6 3.2 0.00 0.00 0.00 89 1019.4
20260901135021 25 189 0.0 0.0 0.00 0.00 0.00 96 1019.4
20260901134518 24 185 0.0 1.6 0.00 0.00 0.00 98 1019.7
20260901134012 24 182 0.0 0.0 0.00 0.00 0.00 99 1019.9
20260901133511 24 179 0.0 0.0 0.00 0.00 0.00 99 1019.5
20260901133009 23 190 0.0 0.0 0.00 0.00 0.00 99 1019.8
20260901132509 23 189 0.0 0.0 0.00 0.00 0.00 99 1019.7
20260901132008 23 191 0.0 0.0 0.00 0.00 0.00 99 1019.8
20260901131503 23 191 0.0 0.0 0.00 0.00 0.00 99 1019.9
20260901130959 23 182 0.0 0.0 0.00 0.00 0.00 99 1019.9
20260901130458 23 192 0.0 0.0 0.00 0.00 0.00 99 1020.0
20260901125956 22 192 0.0 0.0 0.00 0.00 0.00 99 1020.1
20260901125457 22 192 0.0 0.0 0.00 0.00 0.00 99 1020.2
20260901124956 22 192 0.0 0.0 0.00 0.00 0.00 99 1020.2
20260901124452 21 192 0.0 0.0 0.00 0.00 0.00 99 1020.2
20260901123947 21 192 0.0 0.0 0.00 0.00 0.00 99 1020.2
20260901123442 21 192 0.0 0.0 0.00 0.00 0.00 99 1020.1
20260901122940 21 192 0.0 0.0 0.00 0.00 0.00 99 1020.2
20260901122439 21 200 0.0 0.0 0.00 0.00 0.00 99 1020.1
20260901121939 21 200 0.0 0.0 0.00 0.00 0.00 99 1020.1
20260901121434 20 200 0.0 0.0 0.00 0.00 0.00 99 1020.1
20260901120929 20 200 0.0 0.0 0.00 0.00 0.00 99 1020.2
20260901120429 20 200 0.0 0.0 0.00 0.00 0.00 99 1020.0
20260901115925 20 200 0.0 0.0 0.00 0.00 0.00 99 1020.0
20260901115424 20 200 0.0 0.0 0.00 0.00 0.00 99 1019.9
20260901114922 20 200 0.0 0.0 0.00 0.00 0.00 99 1019.8
20260901114417 20 200 0.0 0.0 0.00 0.00 0.00 99 1019.9
20260901113915 20 200 0.0 0.0 0.00 0.00 0.00 99 1019.7
20260901113415 20 200 0.0 0.0 0.00 0.00 0.00 99 1019.7
20260901112910 20 200 0.0 0.0 0.00 0.00 0.00 99 1019.4
20260901112405 20 200 0.0 0.0 0.00 0.00 0.00 99 1019.5
20260901111900 20 200 0.0 0.0 0.00 0.00 0.00 99 1019.3
20260901111358 20 200 0.0 0.0 0.00 0.00 0.00 99 1019.2
20260901110857 20 200 0.0 0.0 0.00 0.00 0.00 99 1019.3
20260901110353 20 200 0.0 0.0 0.00 0.00 0.00 99 1019.1
20260901105849 20 200 0.0 0.0 0.00 0.00 0.00 99 1019.0
20260901105344 20 200 0.0 0.0 0.00 0.00 0.00 99 1019.0
20260901104840 20 200 0.0 0.0 0.00 0.00 0.00 99 1019.0
20260901104336 20 200 0.0 0.0 0.00 0.00 0.00 99 1019.1
20260901103831 20 200 0.0 0.0 0.00 0.00 0.00 99 1018.8
20260901103330 20 200 0.0 0.0 0.00 0.00 0.00 99 1018.9
20260901102825 20 200 0.0 0.0 0.00 0.00 0.00 99 1018.8
20260901102319 20 200 0.0 0.0 0.00 0.00 0.00 99 1018.9
20260901101815 20 200 0.0 0.0 0.00 0.00 0.00 99 1019.0
20260901101315 20 200 0.0 0.0 0.00 0.00 0.00 99 1018.8
20260901100814 20 200 0.0 0.0 0.00 0.00 0.00 99 1018.7
20260901100309 20 200 0.0 0.0 0.00 0.00 0.00 99 1018.8
20260901095808 20 200 0.0 0.0 0.00 0.00 0.00 99 1018.7
20260901095306 20 200 0.0 0.0 0.00 0.00 0.00 99 1018.9
20260901094800 20 200 0.0 0.0 0.00 0.00 0.00 99 1018.6
20260901094255 20 200 0.0 0.0 0.00 0.00 0.00 99 1018.6
20260901093750 20 200 0.0 0.0 0.00 0.00 0.00 99 1018.8
20260901093249 20 200 0.0 0.0 0.00 0.00 0.00 99 1018.7
20260901092745 20 200 0.0 0.0 0.00 0.00 0.00 99 1018.7
20260901092241 20 200 0.0 0.0 0.00 0.00 0.00 99 1018.5
20260901091736 20 200 0.0 0.0 0.00 0.00 0.00 99 1018.6
20260901091232 20 200 0.0 0.0 0.00 0.00 0.00 99 1018.5
20260901090726 20 200 0.0 0.0 0.00 0.00 0.00 99 1018.8
20260901090227 20 200 0.0 0.0 0.00 0.00 0.00 99 1018.5
20260901085723 20 200 0.0 0.0 0.00 0.00 0.00 99 1018.6
20260901085218 20 200 0.0 0.0 0.00 0.00 0.00 99 1018.6
20260901084714 20 200 0.0 0.0 0.00 0.00 0.00 99 1018.6
20260901084210 20 200 0.0 0.0 0.00 0.00 0.00 99 1018.5
20260901083705 20 200 0.0 0.0 0.00 0.00 0.00 99 1018.5
20260901083204 20 200 0.0 0.0 0.00 0.00 0.00 99 1018.5
20260901082703 20 200 0.0 0.0 0.00 0.00 0.00 99 1018.7
20260901082159 20 200 0.0 0.0 0.00 0.00 0.00 99 1018.7
20260901081654 20 200 0.0 0.0 0.00 0.00 0.00 99 1018.6
20260901081153 20 200 0.0 0.0 0.00 0.00 0.00 99 1018.5
20260901080649 21 200 0.0 0.0 0.00 0.00 0.00 99 1018.5
20260901080147 21 200 0.0 0.0 0.00 0.00 0.00 99 1018.3
20260901075643 21 200 0.0 0.0 0.00 0.00 0.00 99 1018.5
20260901075142 21 200 0.0 0.0 0.00 0.00 0.00 99 1018.5
20260901074642 21 200 0.0 0.0 0.00 0.00 0.00 99 1018.6
20260901074137 21 200 0.0 0.0 0.00 0.00 0.00 99 1018.4
20260901073634 21 200 0.0 0.0 0.00 0.00 0.00 99 1018.4
20260901073129 21 200 0.0 0.0 0.00 0.00 0.00 99 1018.2
20260901072624 21 200 0.0 0.0 0.00 0.00 0.00 99 1018.4
20260901072119 21 200 0.0 0.0 0.00 0.00 0.00 99 1018.4
20260901071619 21 200 0.0 0.0 0.00 0.00 0.00 99 1018.5
20260901071118 21 200 0.0 0.0 0.00 0.00 0.00 99 1018.3
20260901070613 21 200 0.0 0.0 0.00 0.00 0.00 99 1018.4
20260901070108 21 200 0.0 0.0 0.00 0.00 0.00 99 1018.5
20260901065602 21 200 0.0 0.0 0.00 0.00 0.00 99 1018.5
20260901065056 21 200 0.0 0.0 0.00 0.00 0.00 99 1018.6
20260901064554 21 200 0.0 0.0 0.00 0.00 0.00 99 1018.4
20260901064050 21 200 0.0 0.0 0.00 0.00 0.00 99 1018.6
20260901063546 21 200 0.0 0.0 0.00 0.00 0.00 99 1018.5
20260901063042 21 200 0.0 0.0 0.00 0.00 0.00 99 1018.5
20260901062538 21 200 0.0 0.0 0.00 0.00 0.00 99 1018.3
20260901062033 21 200 0.0 0.0 0.00 0.00 0.00 99 1018.3
20260901061530 21 200 0.0 0.0 0.00 0.00 0.00 99 1018.4
20260901061025 21 200 0.0 0.0 0.00 0.00 0.00 99 1018.6
20260901060524 21 200 0.0 0.0 0.00 0.00 0.00 99 1018.5
20260901060019 21 200 0.0 0.0 0.00 0.00 0.00 99 1018.5
20260901055515 22 200 0.0 0.0 0.00 0.00 0.00 99 1018.7
20260901055012 22 200 0.0 0.0 0.00 0.00 0.00 99 1018.6
20260901054509 21 200 0.0 0.0 0.00 0.00 0.00 99 1018.4
20260901054004 22 200 0.0 0.0 0.00 0.00 0.00 99 1018.5
20260901053459 22 200 0.0 0.0 0.00 0.00 0.00 99 1018.6
20260901052955 22 200 0.0 0.0 0.00 0.00 0.00 99 1018.6
20260901052451 22 200 0.0 0.0 0.00 0.00 0.00 99 1018.7
20260901051949 22 200 0.0 0.0 0.00 0.00 0.00 99 1018.4
20260901051445 22 200 0.0 0.0 0.00 0.00 0.00 99 1018.7
20260901050939 22 200 0.0 0.0 0.00 0.00 0.00 99 1018.4
20260901050435 22 200 0.0 0.0 0.00 0.00 0.00 99 1018.3
20260901045934 22 200 0.0 0.0 0.00 0.00 0.00 99 1018.2
20260901045429 22 200 0.0 0.0 0.00 0.00 0.00 99 1018.2
20260901044924 22 200 0.0 0.0 0.00 0.00 0.00 99 1018.1
20260901044420 22 200 0.0 0.0 0.00 0.00 0.00 99 1018.1
20260901043916 22 200 0.0 0.0 0.00 0.00 0.00 99 1017.9
20260901043413 22 200 0.0 0.0 0.00 0.00 0.00 99 1018.1
20260901042912 22 200 0.0 0.0 0.00 0.00 0.00 99 1017.8
20260901042407 21 200 0.0 0.0 0.00 0.00 0.00 99 1017.8
20260901041902 22 200 0.0 0.0 0.00 0.00 0.00 99 1018.0
20260901041357 22 200 0.0 0.0 0.00 0.00 0.00 99 1018.0
20260901040856 22 200 0.0 0.0 0.00 0.00 0.00 99 1018.3
20260901040356 22 200 0.0 0.0 0.00 0.00 0.00 99 1018.2
20260901035855 22 200 0.0 0.0 0.00 0.00 0.00 99 1018.1
20260901035354 22 200 0.0 0.0 0.00 0.00 0.00 99 1018.2
20260901034853 22 200 0.0 0.0 0.00 0.00 0.00 99 1018.3
20260901034348 22 200 0.0 0.0 0.00 0.00 0.00 99 1018.1
20260901033843 22 200 0.0 0.0 0.00 0.00 0.00 99 1018.2
20260901033342 22 200 0.0 0.0 0.00 0.00 0.00 99 1018.6
20260901032841 22 200 0.0 0.0 0.00 0.00 0.00 99 1018.7
20260901032340 22 200 0.0 0.0 0.00 0.00 0.00 99 1018.9
20260901031835 22 200 0.0 0.0 0.00 0.00 0.00 99 1018.8
20260901031331 22 200 0.0 0.0 0.00 0.00 0.00 99 1018.9
20260901030830 22 200 0.0 0.0 0.00 0.00 0.00 99 1018.9
20260901030326 22 200 0.0 0.0 0.00 0.00 0.00 99 1018.9
20260901025825 22 200 0.0 0.0 0.00 0.00 0.00 99 1019.1
20260901025320 22 200 0.0 0.0 0.00 0.00 0.00 99 1019.2
20260901024815 22 200 0.0 0.0 0.00 0.00 0.00 99 1019.1
20260901024314 22 200 0.0 0.0 0.00 0.00 0.00 99 1019.3
20260901023812 22 200 0.0 0.0 0.00 0.00 0.00 99 1019.2
20260901023308 22 200 0.0 0.0 0.00 0.00 0.00 99 1019.3
20260901022803 22 200 0.0 0.0 0.00 0.00 0.00 99 1019.5
20260901022259 22 200 0.0 0.0 0.00 0.00 0.00 99 1019.4
20260901021754 23 200 0.0 0.0 0.00 0.00 0.00 99 1019.4
20260901021250 23 200 0.0 0.0 0.00 0.00 0.00 99 1019.3
20260901020744 23 200 0.0 0.0 0.00 0.00 0.00 99 1019.1
20260901020240 23 200 0.0 0.0 0.00 0.00 0.00 99 1019.3
20260901015734 23 200 0.0 0.0 0.00 0.00 0.00 99 1019.4
20260901015231 23 200 0.0 0.0 0.00 0.00 0.00 99 1019.3
20260901014730 23 200 0.0 0.0 0.00 0.00 0.00 99 1019.2
20260901014226 23 200 0.0 0.0 0.00 0.00 0.00 99 1019.2
20260901013721 23 200 0.0 0.0 0.00 0.00 0.00 98 1019.1
20260901013217 23 200 0.0 0.0 0.00 0.00 0.00 98 1019.1
20260901012712 23 200 0.0 0.0 0.00 0.00 0.00 98 1019.4
20260901012212 23 200 0.0 0.0 0.00 0.00 0.00 98 1019.3
20260901011708 23 200 0.0 0.0 0.00 0.00 0.00 98 1019.1
20260901011208 23 200 0.0 0.0 0.00 0.00 0.00 98 1019.0
20260901010702 23 200 0.0 0.0 0.00 0.00 0.00 98 1019.1
20260901010156 24 200 0.0 0.0 0.00 0.00 0.00 98 1019.0
20260901005655 24 200 0.0 0.0 0.00 0.00 0.00 98 1018.9
20260901005151 24 200 0.0 0.0 0.00 0.00 0.00 98 1018.8
20260901004650 24 200 0.0 0.0 0.00 0.00 0.00 98 1018.8
20260901004145 24 200 0.0 0.0 0.00 0.00 0.00 98 1018.7
20260901003640 25 200 0.0 0.0 0.00 0.00 0.00 98 1018.7
20260901003140 25 200 0.0 0.0 0.00 0.00 0.00 97 1018.6
20260901002639 25 200 0.0 0.0 0.00 0.00 0.00 97 1018.6
20260901002134 25 200 0.0 0.0 0.00 0.00 0.00 97 1018.4
20260901001629 25 200 0.0 0.0 0.00 0.00 0.00 97 1018.2
20260901001124 25 200 0.0 0.0 0.00 0.00 0.00 96 1018.6
20260901000620 25 200 0.0 0.0 0.00 0.00 0.00 96 1018.4